RH
97 99 97 95 93 92 89 86 86 85 84 82 83 87 86 83 80 73 68 65 65 67 68 69 67 67 72 76 83 82 78 77 68 66 72 73 69 65 67 76 82 82 81 83 83 72 49 34 31 29 27 27 27 27 26 26 26 24 23 23 22 22 22 21 21 21 21 22 23 24 24 25 25 25 24 25 26 26 25 24 24 23 22 21 21 22 23 24 25 27 28 38 47 48 48 50 51
99 100 98 96 96 93 88 83 80 81 84 83 81 85 83 77 75 73 72 69 66 71 73 72 73 73 78 81 84 82 76 77 73 67 68 70 70 66 65 73 79 76 76 74 69 59 42 32 31 29 29 29 27 24 22 22 22 22 21 21 21 21 21 22 22 22 22 23 25 26 27 28 27 26 26 28 28 28 27 28 27 25 24 23 23 22 23 23 25 27 27 28 32 36 42 47 45
99 99 97 95 93 88 83 78 76 78 82 81 78 78 75 73 75 75 76 73 69 73 76 75 77 78 79 80 82 80 72 72 73 66 64 66 66 67 68 70 72 70 66 55 46 44 38 33 31 31 31 29 27 22 20 20 20 21 21 21 22 22 23 23 23 23 24 26 28 29 30 31 29 28 28 28 28 27 28 29 28 26 25 25 25 25 24 23 24 25 28 26 26 31 37 42 41
96 97 95 94 91 85 79 77 78 81 82 78 74 72 70 70 69 69 73 75 75 75 75 73 75 80 81 76 75 76 72 70 69 63 58 60 59 61 68 67 67 65 52 37 33 37 34 31 30 31 30 26 23 20 19 20 20 21 21 22 23 24 25 25 25 25 27 29 30 32 32 30 28 28 28 28 28 29 30 31 30 28 28 29 31 32 30 27 26 24 26 26 27 31 35 37 37
93 93 91 90 87 81 78 80 82 80 77 74 71 69 66 64 60 59 63 69 74 75 74 73 75 82 84 76 74 76 74 69 68 65 54 57 58 52 58 59 58 54 39 30 32 34 33 31 29 28 27 23 21 20 19 19 20 20 22 23 23 25 25 25 26 27 29 31 32 32 30 28 28 28 29 30 29 29 29 29 29 29 29 32 35 38 38 35 32 29 28 26 27 31 34 35 34
88 87 85 83 81 79 79 82 84 79 72 70 70 67 61 58 57 53 54 55 60 69 70 73 76 81 88 86 81 79 75 68 68 67 53 54 55 43 43 47 47 41 32 30 30 28 28 27 25 25 24 22 21 20 19 19 19 19 20 22 23 24 24 25 26 28 29 29 30 29 28 26 27 27 29 29 29 32 34 33 33 36 41 45 47 47 46 44 40 36 35 30 27 29 30 33 35
79 78 76 72 72 80 84 80 80 79 71 69 69 64 57 58 59 55 55 52 50 57 61 69 76 75 85 92 86 81 76 65 62 63 51 45 45 35 34 38 38 34 30 29 28 25 24 24 24 24 23 22 22 20 18 17 17 17 19 20 22 23 23 24 25 26 26 27 28 27 26 25 25 25 27 28 34 43 44 43 46 53 61 65 67 65 60 56 51 42 39 36 31 31 30 31 35
75 72 69 68 66 77 86 76 75 76 70 70 69 62 57 56 55 54 55 53 50 50 54 64 70 69 76 88 88 82 76 65 57 54 46 38 34 29 28 30 32 30 27 25 25 25 23 24 24 24 24 22 20 18 17 16 16 16 18 20 21 22 22 23 25 25 25 26 26 25 24 22 22 24 26 31 41 49 48 50 55 60 64 67 69 72 70 67 63 50 40 39 37 37 36 34 35
75 72 69 71 66 69 77 68 60 61 66 74 77 72 63 57 49 48 52 54 53 50 53 53 58 66 69 79 87 83 77 69 57 48 42 36 30 25 23 24 25 23 22 23 24 26 26 25 25 26 24 21 19 16 15 14 14 15 17 19 21 23 24 25 26 26 26 25 24 22 21 20 22 25 30 37 45 47 47 50 51 53 54 56 61 69 73 71 69 60 46 40 41 43 43 42 41
76 73 69 72 67 62 64 57 42 34 46 60 73 71 58 54 46 43 47 53 57 53 52 49 53 63 65 72 82 83 76 69 58 45 39 34 28 22 21 21 21 20 21 23 24 25 25 23 25 27 24 19 16 14 13 12 13 17 20 22 24 26 27 28 29 28 27 24 22 21 21 24 27 32 35 38 39 37 37 38 38 40 42 45 51 60 69 71 69 62 50 43 45 49 51 53 54
76 73 73 76 71 65 58 56 43 24 27 32 47 53 38 35 34 37 41 45 53 51 49 49 50 55 61 66 72 79 76 69 58 44 37 32 25 20 20 23 24 23 21 21 20 19 19 22 26 27 23 16 14 12 11 13 17 22 25 27 29 31 32 31 31 31 29 26 24 25 28 31 31 31 29 27 26 26 28 30 32 35 38 41 44 49 58 65 66 61 55 54 57 60 61 63 64
79 76 78 78 71 68 59 55 47 27 21 19 26 30 26 36 43 47 48 45 47 44 40 40 46 52 58 60 62 72 75 72 60 43 37 30 25 22 22 24 25 23 20 17 14 12 17 23 27 26 20 13 12 12 12 17 24 28 30 32 33 35 35 34 35 34 33 32 31 32 32 29 24 19 16 15 15 18 21 24 27 30 33 37 41 43 47 52 56 56 56 58 58 58 58 58 59
81 78 81 78 69 71 60 49 44 32 25 22 24 23 29 53 63 60 55 48 45 44 40 36 42 51 57 57 55 64 73 75 60 40 33 29 28 26 23 23 22 22 20 15 10 11 18 22 24 21 15 12 13 13 18 25 30 33 34 36 37 37 37 36 37 36 36 35 34 31 25 17 11 9 8 7 7 9 11 13 16 19 24 32 39 42 43 45 46 48 51 52 54 56 57 57 58
80 79 83 76 66 72 66 50 44 37 32 25 25 25 28 44 52 57 57 49 47 49 48 41 44 50 53 51 46 53 67 70 52 34 30 29 29 26 24 23 22 23 20 13 10 13 18 20 18 16 13 14 16 19 25 31 33 34 37 39 40 38 36 35 34 34 34 33 29 22 13 7 5 6 5 5 5 6 6 7 8 10 15 23 30 34 35 35 35 40 46 52 58 63 66 66 63
82 81 84 74 63 71 72 59 49 40 37 30 21 15 18 30 40 48 50 46 52 57 54 49 49 53 53 47 42 45 57 60 46 33 31 30 28 26 25 26 24 24 20 11 12 15 16 16 14 14 16 18 21 25 29 31 32 35 38 40 38 36 33 32 32 32 30 26 19 11 6 4 5 5 5 6 6 6 6 6 6 7 8 11 13 15 15 13 16 22 30 37 42 44 45 48 50
86 86 87 76 66 75 77 68 62 49 39 36 30 19 14 23 30 32 33 38 51 59 60 55 50 53 54 48 43 44 51 55 47 37 32 30 30 28 27 27 26 26 18 11 15 16 14 14 14 16 19 22 25 27 26 27 32 36 39 39 37 33 31 31 31 28 23 16 9 5 4 5 5 6 6 5 5 5 5 5 5 5 5 5 5 5 5 4 6 9 12 15 15 14 14 17 23
87 93 88 74 72 83 85 79 73 63 52 46 45 37 20 14 15 18 24 37 56 64 62 54 48 54 57 53 49 46 48 50 47 40 34 32 32 30 30 29 27 25 15 12 17 15 14 15 15 18 20 23 24 23 22 26 31 35 37 38 36 32 31 31 27 20 13 7 4 4 5 6 7 6 5 5 4 4 4 5 5 5 5 5 5 5 5 5 5 6 6 6 6 5 5 6 7
90 98 85 75 84 89 90 91 83 75 74 63 54 48 32 17 11 13 16 28 49 58 57 49 48 63 68 61 56 49 45 44 42 38 35 34 33 31 31 29 27 24 13 13 18 15 16 15 15 18 20 22 20 20 21 25 28 31 34 34 34 33 30 25 18 12 7 4 4 5 8 8 8 6 5 5 4 5 5 5 5 5 6 6 6 6 6 6 6 6 7 7 7 6 5 6 5
94 97 83 83 91 89 93 98 90 83 83 69 54 48 40 32 20 13 13 19 28 33 42 45 47 65 71 66 62 54 47 43 41 38 36 35 33 33 32 28 27 21 12 14 18 17 17 13 15 18 18 19 17 19 22 24 26 28 30 32 34 32 24 16 11 9 8 8 9 9 9 8 7 5 5 5 5 5 5 6 6 6 6 6 7 7 7 7 7 7 8 9 8 7 7 7 6
92 94 89 94 92 91 98 96 88 83 80 63 50 48 41 38 27 15 13 17 19 18 27 38 47 60 63 64 63 59 55 46 40 37 34 35 33 32 31 27 25 18 10 16 19 17 14 11 15 16 15 16 15 19 22 24 26 28 32 35 36 30 19 12 10 11 12 14 13 11 9 7 6 5 5 5 5 6 6 7 6 6 6 7 7 7 8 7 8 8 8 9 8 8 7 7 7
90 90 93 98 92 92 95 91 82 76 77 62 48 46 36 33 31 21 16 14 14 14 19 29 39 46 48 53 55 57 62 53 40 34 32 32 30 31 30 27 24 14 10 17 18 13 11 11 13 13 13 13 14 18 21 23 26 28 33 36 37 29 16 10 11 14 16 17 15 11 9 7 6 6 6 6 6 6 6 7 6 7 7 7 7 7 8 8 8 8 8 7 7 8 7 6 6
93 90 96 98 90 89 91 92 87 82 84 69 51 49 44 34 30 25 22 18 14 12 17 26 30 32 34 41 47 49 56 53 39 30 27 26 27 31 28 25 20 10 12 17 14 11 11 12 12 11 12 12 13 15 17 20 22 25 29 32 33 26 15 8 11 14 15 16 13 11 8 7 6 6 6 6 6 6 7 7 7 7 7 7 8 8 8 8 8 7 7 7 6 6 6 6 5
95 95 99 96 89 89 94 97 92 88 84 68 57 63 62 40 25 25 23 18 15 12 17 26 27 24 23 28 38 43 46 43 32 21 19 20 24 27 23 21 15 8 14 15 10 12 12 12 13 12 12 12 12 12 13 14 16 18 20 24 26 25 18 9 8 9 10 12 11 9 7 6 7 6 6 6 7 7 7 7 8 8 8 8 9 10 9 8 8 7 6 7 7 6 5 5 5
97 98 97 91 87 87 94 95 86 82 75 63 59 71 70 43 26 28 27 22 16 13 17 24 25 22 19 19 27 35 37 32 22 15 14 14 16 19 18 16 10 9 16 14 10 13 13 14 15 15 14 13 13 12 11 11 12 13 14 19 24 24 19 9 5 6 7 9 8 7 6 6 7 7 7 7 7 7 8 8 9 9 9 10 10 11 11 10 8 6 6 6 6 6 6 6 6
95 95 94 86 82 80 85 90 83 76 71 64 60 72 73 44 28 27 30 31 20 13 16 20 22 19 19 26 31 34 34 28 22 20 17 14 15 17 17 13 8 11 17 13 11 15 16 17 19 20 20 18 17 15 12 10 10 11 12 17 22 20 16 10 6 5 6 7 7 6 6 6 7 7 7 7 8 8 9 10 10 11 11 11 12 13 12 10 8 6 5 6 6 6 6 7 7
92 89 88 79 74 70 73 86 89 79 74 69 58 70 75 50 39 35 27 26 18 14 16 17 17 15 19 33 42 41 36 31 28 27 21 15 15 16 15 11 7 13 17 12 11 15 18 21 23 24 23 20 18 16 14 11 11 11 10 13 19 17 14 13 10 7 7 8 7 6 7 7 7 7 8 8 8 8 9 11 13 13 13 13 14 14 12 11 9 7 5 4 5 6 6 6 6
89 85 83 74 67 61 61 73 81 76 75 72 62 68 75 62 57 48 30 21 18 15 14 14 12 13 22 34 44 45 41 36 31 26 20 14 14 14 13 10 9 15 17 12 11 14 19 23 25 24 22 19 15 13 11 10 11 12 9 8 13 15 13 13 11 9 8 8 8 8 8 8 9 9 9 9 9 11 12 14 16 16 15 15 15 14 12 10 8 6 6 5 5 5 5 5 5
82 82 78 73 66 58 54 57 62 69 77 82 78 74 74 69 60 51 39 30 25 17 12 13 13 14 25 37 45 45 41 40 36 26 18 13 13 14 13 10 11 17 17 12 11 13 18 23 25 25 23 19 14 11 9 8 10 12 9 6 8 10 10 9 8 8 9 9 9 10 12 12 12 11 11 12 13 16 17 18 18 16 16 16 17 17 16 14 10 6 6 6 5 5 5 5 5
73 75 74 72 68 60 55 51 51 60 76 86 81 70 68 65 51 48 51 50 43 23 11 11 12 15 21 33 43 42 41 42 39 30 19 11 13 15 11 10 12 16 15 10 11 13 17 23 25 26 23 20 15 10 9 8 7 9 9 7 8 8 7 7 7 8 9 10 11 14 16 17 16 13 12 14 16 17 18 18 17 15 14 15 15 15 16 17 14 8 5 5 6 6 5 5 5
70 75 75 73 69 62 54 52 52 56 66 73 69 60 60 57 46 46 51 60 60 46 37 20 8 15 18 25 38 42 45 44 36 28 19 12 16 17 10 10 13 14 12 9 12 14 17 22 25 25 21 18 14 10 10 8 6 7 8 8 9 10 9 9 9 9 9 11 13 16 19 21 19 13 11 14 15 14 14 14 13 11 10 10 10 9 10 12 11 8 6 5 5 5 6 5 5
69 70 67 66 67 62 52 50 55 60 62 62 62 55 52 53 49 47 46 54 61 65 71 41 5 10 17 21 34 43 43 37 28 21 16 12 17 18 10 9 13 13 11 11 15 17 18 23 24 21 17 17 16 12 11 9 7 6 6 7 8 10 10 10 11 11 12 13 15 18 22 24 21 14 12 13 12 10 9 8 8 8 9 9 9 9 9 9 9 10 8 6 4 5 5 5 5
60 56 50 55 60 55 46 47 56 66 65 61 64 55 48 52 51 52 55 59 60 65 76 52 11 5 15 20 28 40 39 29 24 18 14 14 16 18 12 9 13 13 11 13 19 19 20 22 19 14 12 15 18 15 12 9 8 6 6 7 6 8 8 9 10 11 15 17 19 23 26 24 19 14 12 11 9 7 6 6 7 8 8 8 7 7 6 6 8 10 11 9 5 4 5 5 5
44 42 41 49 50 45 43 50 63 71 65 63 69 57 48 56 56 60 65 65 65 67 74 60 23 2 10 20 23 34 37 26 22 21 20 19 16 15 12 11 13 13 10 14 20 18 18 17 11 9 8 10 13 14 13 10 9 8 6 6 6 7 7 7 10 13 17 19 20 24 25 21 16 13 11 9 7 6 7 7 7 6 6 5 5 4 4 4 5 6 9 10 7 5 4 5 5
28 29 35 45 44 42 47 58 69 69 61 68 72 57 51 61 62 64 69 68 67 69 74 67 37 8 7 19 23 32 36 25 18 19 22 22 19 13 11 13 13 13 10 12 18 16 14 12 5 4 5 5 7 9 11 10 10 10 8 7 6 6 7 8 11 14 17 16 15 17 18 16 14 12 10 8 7 7 7 7 6 6 5 5 4 4 5 5 6 6 7 9 9 6 4 4 4
26 26 34 48 46 41 50 61 69 66 63 71 70 60 60 63 64 67 70 70 67 70 75 72 52 21 7 13 22 30 34 27 14 11 15 17 18 13 10 13 15 14 11 10 15 14 11 9 4 4 4 4 4 5 6 7 8 9 9 8 7 7 7 9 11 13 13 12 10 11 11 11 11 10 9 8 8 8 8 8 7 6 5 5 5 6 6 6 7 6 6 8 9 7 5 4 4
30 31 40 56 51 40 49 60 65 65 66 69 66 67 68 62 65 70 69 68 68 71 75 72 61 37 17 11 15 24 31 29 14 7 11 11 12 12 9 13 16 16 13 9 12 12 10 9 6 5 5 5 5 5 4 4 4 5 7 8 7 7 7 8 8 9 9 9 8 8 9 9 10 10 10 9 9 9 8 7 7 7 7 7 7 7 7 7 7 7 8 9 9 7 5 4 4
31 30 36 55 50 38 51 64 67 65 61 63 67 73 72 65 68 70 68 68 68 71 73 72 66 54 39 20 9 15 23 23 12 7 11 10 9 10 8 11 16 17 14 10 9 10 9 8 7 6 5 5 5 5 4 4 4 3 4 5 7 7 7 7 7 7 7 6 7 7 8 8 8 9 9 8 7 7 7 8 9 9 8 8 8 8 6 5 6 7 9 9 8 6 5 5 4
26 24 27 44 42 38 56 68 70 66 54 56 67 72 71 68 70 70 67 67 68 70 71 71 68 61 53 36 14 9 14 18 14 9 9 9 8 9 7 9 14 17 16 13 9 8 8 7 7 6 5 4 4 4 4 3 4 4 4 4 5 5 5 6 6 6 6 6 6 6 7 7 7 8 7 6 6 6 8 10 10 9 9 8 8 7 6 4 4 5 6 7 6 5 5 5 4
18 19 21 28 31 41 59 65 71 71 56 58 69 70 70 70 73 73 66 66 71 72 69 71 70 61 58 51 26 10 11 18 20 12 5 5 7 8 8 7 11 14 14 12 8 6 6 6 5 5 4 4 3 3 3 3 4 3 4 4 4 4 4 5 5 5 6 6 6 6 6 6 6 6 5 5 6 7 10 11 10 10 8 8 10 10 8 6 5 4 4 4 4 5 5 5 5
11 13 13 16 25 42 57 62 71 72 60 63 73 72 71 73 76 71 64 67 73 71 68 71 72 65 63 60 36 15 12 17 21 14 3 2 4 5 8 8 8 10 10 9 6 4 4 4 4 4 4 3 3 3 3 3 4 3 4 4 4 4 4 4 4 5 6 6 6 6 6 6 5 5 5 6 6 9 12 13 12 10 9 13 17 16 14 12 10 9 8 8 8 7 7 7 7
5 9 6 11 28 41 54 64 69 70 63 65 74 73 67 65 66 64 65 70 71 68 67 70 73 69 66 65 49 27 16 15 18 17 8 2 2 3 5 6 6 7 7 7 6 4 3 3 3 3 3 3 3 3 3 3 3 3 3 3 4 4 4 4 4 4 5 6 6 6 6 6 5 5 5 6 7 11 15 15 13 12 14 20 24 22 19 18 17 17 17 16 16 15 15 14 14
2 5 1 14 39 45 52 63 66 69 68 67 72 69 59 52 49 56 68 70 67 66 64 66 70 66 63 68 62 40 23 17 14 16 15 6 2 2 2 3 3 3 4 4 4 3 3 2 2 3 2 3 2 2 2 3 3 3 3 4 4 4 4 4 4 4 5 5 6 6 5 5 4 5 6 6 8 14 18 19 17 16 19 24 26 24 21 21 23 24 24 23 22 22 21 21 21
2 3 1 21 49 51 52 63 66 68 69 68 69 64 59 50 39 49 67 69 69 66 58 61 66 64 60 63 64 48 31 24 15 13 16 10 4 3 1 2 2 2 3 2 3 3 2 2 2 2 2 2 2 2 2 3 3 3 3 4 3 4 4 4 4 4 4 5 5 5 5 5 5 5 6 6 9 16 21 23 22 21 22 23 24 26 24 25 26 27 26 25 25 25 27 29 32
2 3 4 23 51 56 57 64 66 69 70 69 69 65 61 46 30 42 63 70 69 57 48 56 62 61 59 57 60 55 40 31 21 14 16 13 8 5 3 2 1 1 2 1 2 2 2 2 2 2 2 2 3 3 3 3 3 3 3 4 4 4 4 4 4 4 4 5 5 5 5 5 5 6 6 6 9 17 23 26 26 24 23 22 24 25 25 25 25 25 25 24 24 28 34 40 45
2 4 4 20 49 59 62 69 68 69 72 67 67 69 58 36 23 34 51 60 57 46 44 55 58 58 58 55 58 60 53 41 27 19 19 16 11 8 5 4 2 1 1 1 2 2 2 2 2 2 2 3 3 3 3 3 2 3 3 3 4 4 4 4 4 4 4 5 5 5 5 5 5 6 6 5 9 18 24 27 26 24 22 21 21 22 22 22 21 21 22 24 29 37 44 49 51
2 5 2 13 42 59 66 69 67 70 71 60 60 66 54 31 20 23 30 37 40 42 48 55 56 55 56 56 58 62 63 52 35 27 26 20 14 12 10 8 5 3 2 2 2 2 3 3 3 4 3 4 4 3 3 3 3 3 3 3 3 3 4 4 4 4 4 5 5 5 5 5 6 6 6 5 9 18 25 27 25 23 21 20 20 21 21 20 20 24 29 37 45 51 55 52 47
2 4 2 5 27 53 65 65 67 70 57 39 46 63 56 29 15 14 16 23 35 45 53 56 57 55 54 56 58 61 63 59 48 37 31 26 20 16 15 13 11 7 4 3 3 3 3 4 4 4 4 4 4 4 4 3 3 3 3 3 3 3 3 4 4 4 4 5 5 5 5 6 6 6 7 6 9 19 26 26 24 21 19 20 22 23 23 24 29 36 44 53 58 59 58 52 41
2 3 3 2 10 33 52 58 63 54 26 15 34 62 60 26 7 12 15 18 29 39 47 55 58 56 56 57 58 60 62 61 55 45 36 31 28 24 23 21 19 15 9 5 4 4 4 5 5 5 5 5 4 5 7 7 7 5 4 3 3 4 4 4 4 4 4 5 5 5 5 6 6 7 8 7 11 20 25 25 22 20 19 22 24 24 26 31 39 46 51 57 60 60 59 50 37
3 2 3 3 3 11 23 34 37 22 4 7 27 55 54 19 2 13 17 15 18 24 35 49 54 53 57 60 60 60 62 61 57 50 42 36 31 30 31 31 30 26 21 15 8 5 4 3 4 4 5 6 6 8 12 16 16 12 10 8 6 5 4 4 4 4 4 4 5 5 5 6 8 10 11 9 13 21 25 24 21 19 21 23 25 25 30 39 47 50 51 55 56 55 51 40 30
3 2 2 2 3 3 4 11 13 4 1 5 20 47 43 11 1 10 14 17 18 18 28 42 47 49 57 64 61 59 61 61 58 52 47 42 35 32 32 33 33 32 32 29 23 17 13 11 10 8 8 7 8 12 18 24 26 24 21 19 16 12 8 6 5 5 5 5 5 5 6 9 11 13 13 11 15 23 25 22 19 19 22 24 24 27 36 46 51 49 46 46 44 39 33 27 22
3 3 3 2 2 3 1 4 4 2 5 7 19 38 26 4 3 7 13 24 23 16 20 30 36 41 55 62 58 54 57 61 63 58 51 47 42 36 34 32 30 31 33 31 28 26 24 23 23 23 20 15 12 14 19 25 29 29 27 26 25 21 15 10 8 8 8 6 6 6 8 11 14 16 15 13 17 24 24 20 19 21 22 22 24 31 41 50 48 40 33 30 27 22 19 19 18
4 3 4 2 2 3 2 3 3 4 7 8 14 19 11 2 3 5 13 24 24 17 15 19 23 30 45 55 52 47 47 53 63 64 56 51 49 44 40 37 34 34 34 29 25 24 27 30 32 33 31 26 21 21 23 26 28 28 28 27 27 25 23 18 12 10 10 10 10 9 11 15 17 18 17 15 19 24 22 19 20 22 21 21 26 37 45 45 36 26 20 18 17 16 16 17 17
6 5 4 3 3 3 3 3 4 6 6 5 6 6 5 5 2 2 10 17 20 20 15 16 20 22 29 38 39 35 37 47 57 62 59 55 52 49 46 45 42 40 37 31 28 29 35 38 36 35 34 30 27 25 24 26 26 27 28 29 29 27 27 24 17 12 12 14 15 13 14 19 21 21 19 16 21 24 19 18 21 22 20 25 34 41 41 34 23 16 14 16 17 18 19 20 21
7 5 4 5 4 4 4 3 3 7 6 3 3 4 3 3 3 2 5 10 15 19 16 14 20 20 16 20 23 25 39 52 56 58 58 54 52 49 47 47 46 44 40 35 35 37 40 39 36 35 33 28 24 21 19 20 21 23 27 30 32 31 30 29 25 19 17 18 20 20 21 24 25 25 21 17 22 23 17 19 22 22 26 35 40 38 32 24 17 15 17 20 22 24 25 26 27
8 7 6 6 6 5 5 4 3 4 4 2 2 3 2 2 3 2 2 6 11 19 20 14 19 23 14 9 17 32 50 57 55 56 57 53 50 47 46 47 47 46 43 39 40 41 38 38 37 35 31 26 23 19 17 15 16 19 23 27 31 32 31 32 30 27 23 21 24 28 29 29 29 29 24 19 22 21 18 20 23 28 38 42 38 31 25 19 17 19 24 27 29 31 31 32 32
10 8 7 6 6 6 5 5 5 4 4 4 2 3 2 2 2 2 3 3 6 17 20 13 18 25 16 11 21 40 55 57 55 58 58 56 53 47 46 49 50 50 47 43 42 41 40 42 43 37 32 30 26 23 20 17 14 15 19 23 29 31 31 32 32 33 30 27 29 34 36 34 33 32 25 20 21 20 18 20 26 37 44 38 31 27 23 21 23 27 31 34 36 37 37 38 37
12 10 9 8 7 6 6 6 7 6 6 5 4 4 3 2 3 2 3 3 3 9 11 10 18 23 17 14 21 38 50 51 54 61 60 58 57 51 50 53 56 56 51 47 46 45 46 48 46 40 36 34 31 29 26 20 15 14 14 18 23 28 29 30 33 36 37 37 37 40 42 39 36 34 26 19 20 19 16 20 31 40 37 27 25 26 25 27 32 36 39 41 43 45 43 42 40
14 11 10 10 8 7 7 6 6 6 6 5 4 4 3 3 3 3 3 4 3 3 4 9 17 23 24 20 21 36 45 41 45 58 63 61 58 54 53 56 61 59 53 52 51 50 52 53 49 42 39 38 36 33 29 21 16 12 12 15 17 20 23 24 28 35 40 44 45 46 47 42 38 36 26 19 20 18 16 23 35 36 27 23 25 26 29 35 41 45 48 49 50 50 47 44 40
Wind_Speed
9 9 11 11 10 8 8 8 8 8 7 7 7 7 7 9 9 9 10 9 9 9 9 8 7 8 9 10 11 13 15 15 14 16 16 13 10 10 12 13 13 13 14 14 12 11 11 12 13 13 13 13 13 13 13 13 13 12 11 10 9 9 8 8 7 6 6 5 5 5 5 5 5 4 3 4 5 6 6 5 6 6 5 5 5 6 6 6 6 6 5 5 5 5 6 7 8
9 9 10 10 9 9 9 8 8 8 8 8 7 7 7 9 10 10 10 9 9 10 10 9 9 9 10 11 13 14 15 15 13 13 14 13 10 8 10 12 12 12 13 13 12 12 12 12 13 13 13 12 12 12 12 13 12 11 10 9 8 8 7 7 6 5 5 5 5 5 5 5 4 3 4 5 6 5 4 4 5 4 4 5 5 6 6 6 5 5 5 4 2 2 5 7 7
10 10 10 9 8 9 9 8 8 8 9 9 9 7 7 9 11 11 10 9 9 10 10 11 11 11 11 13 15 15 14 14 12 11 12 13 12 10 9 10 10 10 11 12 12 13 13 12 12 12 12 12 11 11 11 12 11 11 10 8 7 7 6 6 5 5 5 5 5 5 4 4 3 4 5 5 4 4 3 4 4 3 4 4 5 6 6 5 5 4 4 3 1 1 5 6 5
8 9 10 9 10 9 9 9 8 8 9 10 10 9 8 9 10 11 11 10 9 9 10 11 12 13 11 13 16 16 13 13 12 10 10 12 11 11 10 9 9 9 10 12 13 14 14 13 12 11 11 11 11 10 10 11 11 10 9 8 6 6 5 5 4 4 4 5 5 4 4 3 4 4 4 4 3 3 3 3 3 3 3 4 5 5 5 4 4 4 3 3 1 2 5 5 4
7 7 8 8 8 6 7 9 9 8 9 10 10 10 9 10 10 11 11 10 10 9 10 11 13 15 13 10 13 13 10 11 11 7 9 11 10 12 11 10 10 10 11 13 13 13 13 13 12 11 10 10 9 9 10 10 10 9 8 7 6 5 5 5 4 4 5 5 5 4 3 3 3 4 4 4 3 3 3 3 3 3 4 4 5 4 4 3 3 3 3 3 2 3 5 5 3
6 6 5 5 4 3 6 8 7 7 9 11 11 9 8 9 9 9 9 9 10 9 9 10 11 14 14 9 8 7 5 6 10 7 8 11 10 11 13 11 11 12 12 12 12 12 12 12 11 10 9 8 8 8 9 9 9 8 7 6 5 5 5 5 4 4 5 5 5 4 3 3 3 4 4 4 4 4 4 4 4 4 5 5 5 3 3 2 2 2 3 3 2 3 4 4 3
7 6 4 3 3 4 5 5 5 6 8 11 12 8 7 8 8 7 8 7 8 8 8 10 8 9 13 9 6 6 4 3 8 7 6 11 12 11 13 13 12 12 12 12 11 11 11 11 10 9 8 7 8 8 8 8 8 7 6 6 5 4 5 5 4 4 5 5 4 4 3 3 3 4 4 5 5 4 4 4 5 6 7 7 6 4 2 2 2 2 2 3 2 2 3 3 3
7 6 5 4 5 5 5 4 4 5 7 11 11 8 8 8 8 7 7 6 6 7 8 8 6 5 9 9 7 6 5 3 5 6 5 10 13 12 12 13 12 12 11 11 10 9 9 9 9 7 6 6 7 7 7 8 7 7 6 6 5 4 5 5 4 4 4 4 4 3 3 3 4 4 5 5 5 4 4 5 5 7 7 8 7 6 5 4 3 3 3 3 2 2 3 3 4
6 6 5 6 5 5 5 5 4 3 7 10 10 9 8 7 7 7 6 6 5 6 7 6 5 4 6 8 7 5 6 4 2 4 5 9 13 12 11 11 11 11 10 9 8 7 7 7 7 6 5 5 6 6 7 7 7 6 6 5 5 5 5 5 5 5 5 4 4 4 3 4 4 5 6 5 5 5 5 5 6 7 8 8 8 8 8 6 5 4 4 4 3 3 4 4 5
7 6 6 7 5 5 5 4 3 3 7 9 9 8 7 5 6 7 7 7 5 5 6 6 6 4 4 8 7 5 5 4 2 4 6 8 11 11 10 9 8 8 7 6 6 6 6 6 6 6 5 5 5 6 6 7 7 6 6 5 5 5 5 5 5 5 5 5 5 5 5 5 6 7 7 6 6 6 6 7 7 8 9 9 10 10 10 9 7 6 5 5 5 5 5 5 6
7 7 7 7 4 4 4 4 3 3 6 9 8 7 5 6 7 7 6 7 6 4 4 5 5 4 4 6 7 6 5 3 3 5 7 8 10 10 10 9 7 4 4 4 4 4 5 6 6 5 5 5 5 6 7 7 7 6 5 5 5 5 6 5 6 6 5 6 6 6 7 7 8 8 9 9 10 10 10 11 11 12 12 12 13 13 12 11 10 9 8 8 7 6 6 7 7
7 7 8 7 5 4 3 4 5 5 5 6 7 5 5 7 7 6 5 6 5 3 3 3 4 4 4 4 6 7 6 4 4 5 7 9 9 8 8 7 6 4 2 2 3 4 5 6 7 6 5 5 6 7 7 7 6 6 5 6 6 6 6 6 6 6 7 7 7 8 8 9 10 11 13 14 14 14 15 15 16 16 15 15 15 14 14 14 13 13 12 11 10 10 9 8 8
6 6 6 6 6 5 4 5 7 7 6 6 6 5 6 8 7 4 4 5 4 4 4 3 3 4 3 3 5 7 7 6 5 6 7 9 8 7 7 6 5 4 2 1 2 4 6 6 7 7 6 6 7 8 8 7 6 6 6 6 7 7 7 7 7 8 8 9 9 9 10 11 13 15 16 17 17 17 18 19 19 19 18 18 17 16 16 16 16 16 16 15 14 13 12 11 10
6 5 4 4 4 4 4 6 7 9 9 8 7 6 7 6 4 3 3 3 3 4 4 3 3 3 2 2 3 6 9 8 7 6 7 8 8 7 6 5 3 2 1 1 3 5 7 7 8 8 8 8 8 9 9 8 7 7 7 7 8 9 8 8 8 9 9 10 10 10 12 14 16 18 18 18 19 19 20 20 21 20 20 19 19 18 18 19 20 19 18 17 16 16 15 14 14
7 4 3 2 1 3 3 4 5 7 9 9 8 8 8 5 2 2 2 1 1 2 2 2 2 2 2 1 1 3 8 10 8 7 7 7 7 7 6 4 3 1 0 2 5 6 7 8 8 9 9 9 9 9 9 9 9 8 8 9 10 10 9 8 8 9 10 11 12 12 14 16 18 19 19 19 20 20 21 21 21 21 21 20 19 19 20 22 22 21 20 19 18 19 18 17 16
7 4 3 1 1 4 5 5 6 7 8 9 10 10 9 6 4 4 2 0 1 1 0 1 1 1 1 1 1 1 5 9 9 7 7 7 7 7 6 4 3 1 0 3 6 6 7 8 9 9 9 9 10 10 10 10 10 10 10 10 10 10 9 9 9 10 12 13 13 14 15 17 18 19 20 21 21 22 22 22 22 21 21 21 20 20 20 22 23 21 20 20 19 19 20 19 17
8 5 5 2 1 4 6 7 9 10 10 11 10 10 8 5 4 4 2 0 1 1 2 1 0 1 1 1 0 1 4 7 9 8 8 9 8 8 7 5 4 2 1 5 7 7 8 8 9 10 10 10 11 11 11 11 11 11 11 11 11 10 10 10 10 11 13 14 14 14 15 17 18 20 21 22 23 23 23 22 22 21 21 21 20 20 20 21 22 21 20 20 20 19 19 19 19
9 7 5 0 3 5 7 8 10 12 13 11 8 8 8 5 3 3 2 1 1 3 4 3 2 2 2 1 1 2 4 5 8 8 9 9 9 8 7 6 4 3 3 6 8 8 8 9 10 11 11 12 12 12 12 12 12 13 12 12 11 11 11 11 11 12 14 14 14 15 16 17 19 21 22 23 23 23 22 21 21 21 20 20 19 19 18 18 19 19 19 18 18 17 17 17 17
9 7 5 2 3 4 6 8 12 13 11 8 5 7 8 5 3 3 3 2 2 4 5 5 4 4 3 3 2 2 3 5 6 7 8 9 9 8 7 6 5 4 5 8 9 9 9 9 11 12 13 13 14 13 13 13 13 13 13 13 12 12 11 11 12 13 14 14 15 15 16 17 18 20 22 22 22 21 20 19 19 19 19 18 17 17 17 16 16 16 16 17 16 15 15 15 15
9 9 6 4 3 4 5 8 11 9 7 7 6 7 7 5 2 2 2 2 1 3 3 4 5 5 4 4 3 3 3 5 6 6 7 8 8 8 7 7 6 6 8 10 10 11 10 11 12 13 13 14 14 14 14 14 14 14 14 13 13 12 11 12 13 14 14 14 15 16 16 17 18 19 20 20 20 20 19 18 17 17 17 17 16 16 15 15 15 15 14 15 15 14 13 12 12
8 9 7 5 5 5 6 7 8 6 8 9 7 7 8 6 2 1 2 2 1 1 1 3 5 6 5 3 4 4 4 5 6 7 7 7 7 7 7 6 6 6 9 11 11 12 12 12 13 14 14 14 14 14 14 14 15 14 14 14 13 11 11 12 13 14 14 14 15 15 16 16 17 17 18 18 18 18 17 16 16 16 16 15 15 15 14 14 14 13 13 13 13 13 12 11 11
7 8 7 7 6 6 6 6 9 8 10 10 9 10 10 8 5 2 3 4 2 1 1 2 4 5 5 4 4 4 5 5 6 7 8 8 8 8 8 7 7 8 11 12 12 13 13 13 13 14 14 14 14 13 13 14 14 14 14 13 12 11 12 12 13 14 14 14 15 15 15 15 15 16 16 16 16 17 16 15 15 15 15 15 14 14 13 13 13 13 12 12 12 12 12 11 11
9 9 10 10 7 6 7 7 9 10 10 8 11 15 14 11 10 5 4 4 3 2 0 2 2 3 3 4 5 4 5 6 6 7 8 9 9 9 8 8 8 10 13 13 13 14 14 14 14 14 14 14 14 13 13 13 13 14 14 13 13 12 12 13 13 14 14 14 14 14 14 14 14 14 14 14 15 15 15 14 14 14 13 14 14 13 13 13 12 12 12 12 12 12 12 12 12
12 14 14 13 9 7 7 5 7 8 8 7 11 16 15 13 13 9 2 4 4 2 2 3 3 2 1 3 4 4 4 5 6 6 7 8 8 7 7 7 8 12 15 14 14 15 15 15 15 14 14 13 13 12 12 12 12 13 13 13 13 13 13 13 14 14 14 14 14 13 13 13 12 12 12 13 14 14 13 13 13 12 12 13 12 12 12 12 12 12 12 12 11 12 12 11 12
15 16 16 17 13 8 6 4 4 4 5 7 11 15 15 13 13 12 6 4 4 1 2 3 2 1 1 3 4 5 4 4 5 6 6 7 6 5 5 7 11 15 16 16 16 16 15 15 15 15 14 13 12 12 11 12 12 13 13 13 13 13 13 14 13 14 13 13 12 12 12 12 11 11 11 12 12 12 12 12 11 11 11 11 11 11 11 11 11 11 12 12 11 12 12 11 11
18 18 18 19 16 12 9 6 2 1 5 6 9 12 13 11 12 12 7 2 4 3 1 3 2 1 1 3 4 4 5 5 6 7 7 6 6 6 6 9 13 16 16 16 17 17 16 15 14 14 13 13 12 12 11 12 12 13 13 14 13 13 13 13 13 13 12 12 12 11 11 11 11 10 10 10 10 10 10 10 10 10 10 10 10 10 10 10 11 11 11 11 11 11 11 11 11
21 20 19 18 16 15 12 8 5 1 3 5 8 9 10 9 9 10 7 3 4 5 4 3 2 1 3 4 4 4 4 4 4 5 6 7 7 7 8 10 14 17 17 16 17 17 16 15 14 13 13 12 12 12 11 12 13 13 14 14 14 13 13 13 13 12 12 12 11 10 10 10 9 9 9 9 9 9 9 9 9 9 9 9 9 9 10 11 11 11 11 11 11 11 11 11 11
22 22 20 18 17 15 13 10 7 3 1 4 5 4 7 7 6 7 8 6 5 7 6 5 3 1 3 4 4 4 4 4 3 5 8 9 10 10 10 12 16 18 17 17 17 17 16 15 14 13 13 12 12 12 12 12 13 13 14 14 14 14 13 13 12 12 11 11 10 10 9 8 8 8 8 8 8 8 7 8 8 9 9 9 9 10 10 11 11 12 12 12 11 11 10 10 11
24 22 19 18 18 17 17 14 9 6 2 1 2 2 4 4 5 7 7 6 6 7 8 7 5 3 1 4 4 5 5 5 4 6 9 10 11 11 12 14 17 19 18 17 17 17 16 15 14 13 12 12 12 12 12 12 12 13 13 14 14 13 13 13 12 11 11 10 10 9 8 7 7 7 7 7 7 7 7 7 8 9 9 9 9 9 9 9 10 11 11 11 11 10 9 9 9
25 22 21 20 21 20 19 16 11 7 4 2 3 3 3 5 6 7 7 7 6 8 11 10 7 5 2 2 3 4 5 5 6 7 8 10 11 11 12 15 18 18 18 17 17 16 15 15 14 13 13 13 12 12 12 12 12 12 13 13 12 12 12 12 11 11 10 9 8 8 7 6 6 6 6 6 6 7 7 8 9 9 9 9 9 9 9 8 8 8 9 9 9 9 8 8 8
26 25 23 21 22 21 20 17 11 6 4 2 3 2 4 7 8 9 10 10 8 10 12 13 8 6 4 1 2 3 4 5 6 7 8 10 12 12 12 15 17 17 17 17 17 16 15 15 13 13 13 13 12 12 12 12 12 12 12 12 11 11 11 11 10 10 9 8 7 6 5 5 6 6 6 6 6 7 8 8 8 8 8 8 9 9 9 8 7 7 7 6 6 7 7 7 7
28 27 22 18 19 19 19 17 11 5 4 2 1 3 7 9 9 10 12 12 12 14 14 14 10 7 5 2 0 2 3 4 6 7 8 10 12 12 12 15 16 17 17 16 15 15 15 14 13 12 13 13 12 12 12 12 12 12 12 11 11 11 10 10 9 9 8 7 7 5 5 6 6 6 6 5 5 6 7 7 7 7 8 9 9 10 10 10 9 7 6 5 5 5 6 6 6
26 25 21 17 16 15 16 14 11 7 7 3 2 4 8 8 8 10 13 13 13 15 16 14 12 9 6 3 1 1 2 3 6 7 8 9 11 12 13 15 17 17 16 15 15 15 14 13 12 12 13 12 12 12 12 12 12 12 11 11 11 10 10 9 9 8 8 7 7 6 6 7 7 7 6 5 5 6 6 6 6 7 8 9 9 9 10 10 10 9 7 5 4 4 4 5 6
20 19 16 16 15 12 11 14 12 9 8 3 1 4 8 6 8 10 12 13 12 14 16 15 13 10 7 3 1 0 2 4 6 8 9 10 11 12 13 16 17 16 16 15 15 14 13 12 12 12 12 12 12 12 12 11 11 11 10 10 10 10 10 9 9 8 7 7 7 7 8 7 7 7 6 5 5 5 4 5 6 6 7 8 9 10 10 10 10 9 7 6 5 4 4 4 5
16 15 14 15 16 11 11 16 14 11 9 6 4 3 5 4 7 10 11 11 11 13 16 16 13 12 8 4 1 1 2 3 5 7 9 11 12 13 14 16 16 15 15 15 14 12 12 12 12 12 12 11 11 11 11 10 10 10 10 10 10 10 10 9 8 8 8 8 7 7 7 7 6 6 5 4 4 3 4 5 6 7 8 9 9 10 10 10 9 8 7 6 5 5 4 4 4
15 17 18 18 18 13 14 17 18 15 12 11 8 3 1 2 5 9 11 10 11 13 15 14 12 13 11 6 2 3 3 4 4 6 8 10 12 13 15 16 16 15 15 14 13 12 12 12 12 11 11 10 9 9 9 9 9 9 9 10 10 9 9 9 8 8 8 8 8 7 6 6 5 4 3 3 3 3 5 6 7 8 9 9 9 10 10 9 8 7 6 5 5 5 5 5 4
19 19 20 20 19 16 16 19 20 19 16 13 11 10 8 4 3 7 8 9 11 13 14 13 12 13 14 9 4 4 4 4 4 5 7 9 12 14 15 16 16 15 14 14 13 13 12 12 12 11 10 9 8 8 8 8 9 9 9 10 10 9 8 9 9 8 9 9 8 7 6 5 4 3 2 2 4 5 6 7 8 8 8 8 8 9 9 9 7 6 6 6 6 6 6 6 6
24 21 20 22 20 16 19 22 22 21 19 14 13 15 11 6 5 7 7 8 11 13 13 13 12 12 14 12 5 4 5 3 3 4 6 8 10 12 14 15 15 14 14 14 14 14 13 13 12 11 10 10 8 8 7 7 8 9 9 9 9 9 8 7 9 9 9 9 8 7 6 5 3 1 1 3 5 7 7 8 8 8 8 7 8 9 9 9 8 7 7 7 7 7 7 7 7
27 24 22 22 19 18 22 24 23 25 22 17 16 16 12 10 11 11 9 8 11 13 12 13 11 8 12 14 8 4 4 4 4 6 7 8 10 12 14 15 15 16 16 16 16 15 14 13 12 11 10 10 9 9 8 7 8 9 9 9 9 9 8 7 8 10 9 8 7 6 5 3 2 0 2 4 6 8 8 8 8 7 7 7 8 8 9 9 9 8 8 7 7 7 8 8 8
28 26 23 19 18 22 24 23 25 28 24 20 21 20 18 17 19 16 11 9 12 13 12 10 7 5 8 14 11 4 3 5 6 7 8 9 9 10 12 14 16 17 16 16 15 14 14 14 13 12 11 11 10 10 9 8 8 8 9 9 9 10 10 8 8 10 10 9 8 6 4 3 1 2 4 6 7 8 8 7 7 6 6 7 8 8 9 9 9 9 9 9 9 9 9 9 9
27 26 23 17 19 23 24 25 29 29 25 22 24 25 24 23 21 17 12 12 13 13 11 7 4 2 4 10 13 8 4 5 8 8 8 9 9 9 11 13 15 15 15 15 14 14 14 14 14 13 12 11 10 10 9 9 9 9 9 9 9 10 10 9 8 9 9 9 7 6 4 3 2 3 5 6 7 7 7 6 6 6 6 6 7 8 9 9 10 10 10 11 11 11 10 10 10
26 25 19 18 22 24 26 30 32 31 28 24 24 26 25 22 19 16 14 15 14 13 11 7 3 2 2 6 12 11 6 6 7 9 9 9 9 10 10 10 10 11 12 13 14 14 15 14 13 12 11 10 10 9 9 10 10 9 9 10 10 10 10 10 9 8 8 8 6 5 4 4 4 4 5 7 7 6 6 6 6 5 6 7 7 8 8 9 10 10 11 11 11 11 11 11 11
25 21 18 22 27 27 28 32 35 35 30 25 26 27 25 24 20 16 17 17 16 15 11 6 3 3 3 4 9 12 9 7 8 9 10 9 9 10 9 9 9 10 11 12 13 13 13 12 11 11 11 11 10 10 9 10 10 10 10 10 10 10 10 10 9 8 7 7 6 5 5 5 5 6 6 7 7 6 6 6 7 6 6 7 7 7 8 9 10 11 11 12 12 12 13 13 14
17 17 21 26 30 29 30 33 37 35 31 29 29 28 28 28 23 18 17 17 18 16 9 6 4 2 4 5 7 11 12 9 8 9 10 10 10 10 10 10 11 11 11 11 11 11 11 11 11 11 10 10 10 10 10 10 10 10 10 9 10 10 10 10 9 8 7 7 7 6 6 6 6 7 7 8 7 7 7 7 7 7 7 7 7 7 8 9 10 11 12 13 13 14 14 15 16
12 19 24 27 32 32 32 36 38 34 34 35 33 31 33 31 24 19 19 21 20 16 10 7 5 4 4 5 6 9 12 12 10 10 10 11 11 12 12 12 12 12 10 9 10 11 11 12 11 10 9 8 9 10 11 11 10 10 9 9 10 10 10 10 10 9 8 8 7 7 7 8 8 8 9 9 8 8 8 8 8 8 7 7 7 7 8 9 10 11 12 13 14 14 15 17 18
14 24 26 26 33 35 36 40 38 37 40 40 35 34 36 32 25 22 21 20 17 14 11 9 7 6 6 6 7 8 12 14 12 11 11 12 13 13 14 13 12 11 10 10 12 12 12 11 11 10 9 9 8 8 10 10 10 9 9 10 11 10 10 10 10 10 9 9 8 8 9 9 9 10 11 10 8 8 8 8 8 8 8 7 7 7 8 9 10 11 12 13 14 15 16 17 18
18 28 29 29 35 38 41 42 40 44 47 43 36 35 38 34 25 23 20 13 11 12 12 12 9 8 7 7 8 8 11 15 14 12 12 13 14 15 14 13 12 12 12 13 13 13 13 12 11 11 11 10 9 8 8 9 9 9 9 10 10 10 10 10 10 11 10 10 10 9 10 10 11 12 12 11 9 9 8 8 8 8 8 8 8 8 9 10 11 12 13 14 15 16 17 17 17
24 30 32 33 36 40 45 46 46 49 45 40 37 37 39 35 22 20 19 12 11 15 14 13 10 9 8 8 9 9 10 14 16 15 13 14 15 15 13 12 13 13 13 13 14 14 14 14 13 13 13 12 12 11 10 10 9 10 10 10 10 10 10 10 11 12 11 11 11 10 11 12 12 12 12 11 9 9 9 9 8 7 7 7 8 9 10 11 12 13 14 15 17 18 18 18 17
26 29 32 36 38 41 46 48 50 48 40 36 37 40 42 36 23 20 22 16 13 14 14 14 12 11 11 9 9 10 10 13 16 16 16 16 17 16 14 14 14 14 14 15 16 16 16 15 15 15 15 15 15 14 13 12 11 11 12 12 12 11 11 11 12 12 13 13 12 11 12 13 13 13 12 11 9 9 9 9 8 7 7 7 9 9 10 11 13 14 15 16 17 17 18 18 17
25 26 30 34 36 40 43 45 46 41 35 34 36 42 46 39 24 20 22 20 17 15 15 17 15 13 12 11 10 12 12 14 16 17 19 20 19 18 17 17 17 16 16 17 18 18 18 18 17 17 17 17 17 16 15 15 14 14 14 14 14 12 12 13 13 13 13 13 12 13 13 13 13 13 12 11 9 9 9 9 8 7 7 8 9 9 10 12 13 14 14 15 16 16 17 18 18
25 25 28 32 34 38 38 37 39 35 34 38 39 44 46 37 23 19 22 24 22 19 16 17 16 14 14 14 14 14 14 14 16 18 20 22 22 21 20 20 20 18 18 20 20 19 19 19 18 18 18 18 18 17 17 17 17 17 17 16 16 15 14 14 15 14 14 14 14 14 15 15 14 13 13 11 10 10 10 8 8 7 7 8 9 9 11 13 14 14 14 15 16 17 18 20 21
27 28 33 33 29 32 35 36 38 37 38 42 41 43 43 36 27 24 27 28 26 23 18 17 17 15 16 18 17 16 14 13 15 18 20 22 24 23 21 22 22 20 19 20 20 20 19 19 18 18 18 18 17 17 17 18 19 19 19 18 18 17 16 16 16 16 16 16 16 16 16 16 15 14 13 11 11 11 10 9 8 8 7 8 8 9 11 13 14 15 16 17 18 19 21 22 23
29 33 34 27 22 28 36 38 39 41 43 40 39 40 40 37 33 28 30 31 30 27 23 20 18 17 19 21 19 16 14 12 15 17 19 21 23 23 21 21 22 21 20 19 19 20 19 19 18 18 17 15 15 16 17 19 20 21 20 20 20 19 18 18 18 19 19 18 18 18 18 17 16 15 14 13 13 12 11 9 9 8 8 7 7 9 11 13 14 15 17 18 19 21 22 23 24
32 33 28 24 27 32 37 39 40 44 45 37 34 38 38 38 35 28 29 31 30 30 28 24 21 19 19 19 18 15 11 11 13 15 18 20 22 23 21 21 21 20 19 18 19 21 20 19 18 16 14 14 14 15 15 17 19 20 22 22 22 22 21 21 21 22 21 20 20 20 20 19 18 17 15 14 14 13 11 10 9 8 8 7 7 9 11 12 14 16 17 18 20 20 21 21 22
34 30 27 29 35 35 36 39 39 42 43 36 32 35 36 33 30 26 28 31 30 31 31 27 25 22 20 17 14 12 10 10 10 11 16 20 22 23 22 21 21 20 19 19 21 23 22 20 17 14 14 14 14 14 14 15 16 18 21 22 23 24 24 23 24 24 22 21 22 22 22 22 20 18 16 15 15 14 13 11 10 9 8 8 8 9 11 13 14 15 16 18 18 19 19 19 19
34 34 35 37 37 35 35 37 36 37 39 36 32 33 29 25 24 23 26 30 31 33 33 30 28 25 22 17 13 12 12 10 7 8 13 18 22 23 22 22 21 20 20 21 23 24 23 20 17 15 15 15 14 14 14 14 15 16 19 21 23 24 25 25 25 25 23 23 24 24 24 24 22 20 18 17 16 16 14 12 10 9 9 8 8 10 11 13 13 14 15 16 17 17 17 17 18
36 38 39 38 38 37 37 38 37 36 37 35 34 32 23 17 19 20 23 27 31 33 33 31 30 28 24 20 14 14 14 12 7 6 10 16 22 22 21 22 23 22 22 23 24 25 23 20 18 17 17 16 15 15 15 14 14 15 17 19 22 24 25 26 26 26 25 25 26 25 26 27 24 21 19 18 18 17 15 12 10 10 10 9 9 11 12 12 11 12 14 16 16 17 17 18 19
38 39 39 37 37 39 40 41 38 36 37 35 34 34 23 15 17 18 19 24 27 29 30 31 31 27 24 22 17 16 16 13 9 8 10 15 21 23 22 23 24 25 24 25 25 25 24 21 19 19 18 17 15 15 15 15 15 15 16 18 21 23 25 26 26 27 26 27 27 26 27 28 26 22 20 19 19 18 15 13 11 11 11 10 10 11 11 10 10 12 14 16 17 18 19 20 22
Wind_Direction
107 108 107 109 107 109 109 104 98 95 95 97 95 93 93 88 80 71 66 65 70 77 76 80 92 103 103 99 101 106 109 108 108 107 106 104 103 110 114 115 118 118 118 120 121 113 107 110 114 115 116 118 122 125 125 122 119 116 115 115 113 111 108 110 116 118 117 115 116 115 106 97 91 88 88 75 66 63 65 73 77 76 76 77 76 77 75 77 83 86 85 91 99 109 107 96 95
104 115 113 110 105 105 111 111 110 106 100 97 93 92 94 90 83 78 71 69 76 78 75 81 92 101 107 107 110 117 116 112 110 107 106 106 102 107 116 120 123 125 123 123 123 117 113 115 119 121 123 124 127 130 127 121 118 116 115 115 115 114 115 120 125 125 122 121 117 105 93 87 84 78 66 57 54 51 54 64 71 73 77 78 78 77 77 80 83 87 89 90 100 122 99 88 91
102 116 121 117 109 107 112 116 116 108 98 92 89 87 88 91 88 83 78 78 83 83 78 82 87 93 107 116 119 122 118 114 116 111 109 111 112 112 116 122 124 130 129 125 123 121 119 121 124 127 129 131 132 131 126 120 119 119 119 120 123 124 125 129 132 132 128 119 107 94 88 84 76 65 56 52 48 45 54 62 68 72 79 83 80 77 78 81 83 86 87 88 90 75 83 82 92
110 116 122 117 107 101 99 101 106 105 100 93 92 93 92 95 92 87 85 86 91 90 85 87 88 89 103 121 124 125 120 117 114 109 111 114 120 122 123 126 129 133 130 127 125 125 126 126 128 132 135 135 134 131 125 122 123 123 124 128 132 133 133 136 139 136 123 110 99 93 92 87 75 66 64 60 51 50 52 56 64 68 73 75 72 71 71 76 85 90 86 76 59 54 75 78 87
131 131 128 122 112 95 86 90 94 101 105 102 99 100 101 98 95 95 94 97 98 92 88 90 92 92 95 108 119 124 126 123 116 116 124 119 123 127 128 132 134 135 132 130 130 131 132 131 133 138 140 137 132 129 125 124 125 125 129 135 139 142 143 141 140 131 113 104 99 100 102 96 85 77 74 64 50 39 31 30 35 48 56 58 60 62 62 61 70 85 88 75 41 42 72 79 78
140 145 141 145 138 106 94 98 104 108 110 111 106 103 106 101 98 98 95 96 95 92 91 91 93 97 95 84 91 103 115 127 121 135 144 126 127 132 133 136 139 138 136 135 135 137 137 137 139 142 143 138 132 129 127 125 125 128 134 142 147 150 143 133 129 117 105 103 107 116 119 106 93 84 74 60 44 30 21 19 24 41 52 55 55 55 59 63 60 66 73 77 54 39 62 76 76
138 139 141 152 134 122 117 114 129 124 113 114 117 117 113 106 102 96 85 76 80 87 88 86 84 98 102 89 75 79 69 93 115 139 162 133 133 139 139 140 142 141 139 139 140 142 142 142 143 142 141 135 131 129 127 126 126 130 137 143 146 143 125 116 113 107 109 116 123 128 124 106 92 80 70 57 44 38 36 34 40 50 55 57 60 65 81 94 104 95 78 78 78 56 58 67 65
143 139 128 109 99 124 145 143 149 137 121 120 124 125 121 117 110 100 87 75 75 83 83 87 82 87 107 102 94 95 82 57 96 139 170 139 137 145 147 145 145 145 143 144 145 146 145 144 143 140 137 131 126 124 123 122 123 127 132 134 133 123 111 112 117 117 123 126 125 123 110 94 84 76 68 61 55 55 55 52 54 54 51 51 55 65 79 91 106 124 121 106 95 72 52 47 44
150 142 122 104 106 135 158 161 157 147 131 125 124 121 120 121 110 101 88 75 69 77 81 82 78 83 108 108 107 113 101 75 82 154 163 142 141 149 151 149 148 148 147 148 150 151 150 146 140 135 130 122 119 119 119 116 119 123 125 125 121 118 117 124 126 125 124 118 111 102 90 82 80 77 72 69 67 68 68 65 60 54 50 49 53 64 75 85 93 114 135 126 95 63 46 36 38
153 148 130 114 126 146 155 159 148 146 136 131 132 123 113 106 91 83 76 69 64 69 81 73 69 85 109 107 109 118 110 108 153 163 153 144 145 149 150 147 150 151 151 156 159 158 156 147 136 131 124 117 116 117 117 116 118 120 123 124 125 128 130 132 126 121 114 104 96 89 82 79 78 78 76 75 78 80 79 75 69 65 63 61 63 68 76 83 86 95 106 101 82 63 51 40 42
158 156 139 119 129 147 164 197 190 168 150 136 132 122 107 95 73 61 61 65 65 59 73 74 67 77 100 111 118 124 119 126 176 169 155 153 153 153 150 148 154 163 165 168 167 161 155 145 135 128 121 117 119 121 119 118 120 125 130 133 137 139 135 130 121 114 105 95 90 86 82 80 78 78 80 85 88 88 85 82 79 76 73 70 70 71 76 79 80 81 80 76 70 61 51 43 44
165 159 141 119 123 120 143 193 179 162 154 129 117 118 107 91 80 72 66 60 59 55 54 59 64 73 86 113 126 133 137 143 183 190 169 164 165 161 160 161 162 168 176 179 172 156 149 145 136 128 124 123 126 126 123 123 128 134 138 141 142 139 134 127 117 108 99 94 91 87 84 82 83 84 88 92 92 90 87 84 81 77 74 73 73 74 75 77 77 75 73 70 66 62 57 53 52
174 164 142 121 123 101 101 140 136 127 122 107 102 113 105 90 90 88 71 54 50 54 48 51 65 82 101 131 138 140 146 150 176 197 183 174 175 172 173 177 170 164 172 178 161 147 145 145 138 133 131 133 133 131 129 132 137 139 141 142 140 138 133 123 112 105 98 96 93 90 87 87 88 91 93 94 93 90 87 83 80 77 75 74 75 75 75 76 75 75 75 73 70 67 65 63 62
188 186 147 122 117 80 101 120 108 104 97 90 93 101 97 88 100 103 76 45 42 53 41 43 65 78 99 154 161 150 149 151 170 192 191 183 182 181 180 187 191 181 189 151 147 146 147 145 140 138 139 139 138 137 138 139 138 138 140 139 138 136 129 120 110 103 99 97 95 94 92 92 93 94 95 94 92 89 86 83 81 79 78 77 77 77 76 75 75 76 77 76 74 71 69 67 65
196 200 159 129 93 29 64 91 73 82 84 82 80 79 80 72 72 96 90 37 44 63 26 19 47 70 80 141 189 164 155 152 166 188 196 191 186 188 189 196 212 223 292 147 147 147 149 147 143 142 143 142 142 143 142 139 136 136 138 138 137 132 125 118 111 104 102 101 101 100 98 97 98 98 97 95 93 89 86 83 82 81 81 79 78 77 76 75 76 76 76 74 73 71 70 68 66
194 199 196 187 29 8 14 31 32 48 65 70 66 63 65 54 22 8 12 92 166 177 349 17 17 55 94 188 189 184 165 156 166 186 198 197 192 194 199 207 221 245 228 150 149 148 150 147 143 143 144 144 143 143 139 135 134 135 136 136 133 128 124 119 114 108 105 106 106 105 103 102 101 101 100 97 94 91 88 85 83 82 81 79 77 74 74 75 76 75 74 72 70 69 68 67 65
185 199 214 226 359 10 12 12 21 36 37 39 49 53 56 50 20 358 351 79 173 219 231 208 327 32 110 219 249 203 186 167 170 186 200 204 204 204 209 214 222 243 188 155 150 149 149 144 142 144 145 144 142 138 134 132 133 133 134 135 133 129 127 122 116 110 108 109 109 109 106 103 101 100 99 96 93 90 88 86 84 82 80 78 76 73 71 73 76 75 72 71 69 67 66 67 66
175 199 218 215 18 16 17 7 12 25 21 18 33 49 54 46 14 356 350 333 237 234 240 223 195 159 146 194 255 230 205 185 183 194 207 213 216 218 221 222 221 226 184 161 153 149 147 144 144 146 146 144 139 134 130 130 131 133 134 136 134 131 128 122 115 112 111 112 112 110 106 102 100 99 97 94 91 89 87 85 84 82 80 78 75 73 71 71 74 76 74 71 69 67 65 64 64
172 192 201 116 60 20 14 9 8 13 10 2 25 47 51 39 356 349 350 318 255 239 236 225 200 179 183 198 205 225 220 209 206 212 221 226 229 231 235 229 221 210 180 165 155 149 148 148 147 146 145 140 135 132 129 129 131 133 135 136 136 132 126 119 116 115 115 115 113 110 106 103 100 97 95 94 92 90 88 86 84 82 81 79 76 73 70 67 66 68 71 72 70 68 66 64 62
173 181 180 145 122 70 49 25 8 12 13 5 33 54 57 42 351 338 332 291 265 259 238 222 214 199 200 207 199 203 218 221 221 225 230 234 238 241 244 237 225 204 175 165 158 151 149 150 148 144 141 136 133 132 131 131 132 133 136 137 136 131 123 118 119 119 119 117 113 110 107 103 99 96 95 94 94 92 90 87 85 83 82 80 78 74 71 68 63 59 60 66 69 68 67 67 67
170 176 178 165 148 108 82 32 6 28 31 19 40 58 56 40 356 300 270 257 258 326 113 190 209 201 191 200 215 203 200 218 223 223 226 231 236 241 241 234 222 196 171 163 158 153 149 148 146 143 139 135 134 133 133 134 134 135 138 139 137 130 123 122 123 123 121 118 114 112 109 105 100 97 96 95 94 93 92 89 86 85 83 81 78 76 73 72 70 64 58 58 63 66 66 65 65
173 183 183 170 155 113 89 29 16 35 26 23 43 38 28 19 11 358 292 285 301 336 91 178 203 198 184 180 209 216 203 213 221 223 224 225 231 237 230 220 209 183 167 161 156 151 146 144 143 143 141 138 137 136 136 136 136 138 139 138 136 132 128 127 127 125 121 119 117 115 111 106 102 99 96 94 93 92 91 89 86 85 82 81 78 74 71 69 69 67 63 57 56 57 59 59 57
176 189 179 168 158 112 89 44 40 41 18 24 39 24 10 14 36 44 296 302 346 1 194 217 227 214 196 176 188 211 215 212 216 224 225 223 223 228 225 216 202 175 163 160 154 148 145 141 140 142 144 142 141 140 140 139 139 140 139 138 137 137 135 132 129 124 122 121 120 118 113 108 103 100 97 94 93 91 90 89 86 84 81 77 74 70 65 61 59 59 58 56 52 52 51 50 49
177 184 180 180 178 129 99 70 63 49 12 24 38 20 6 13 42 61 7 320 350 20 209 227 238 234 212 179 176 180 204 213 217 226 233 233 227 221 219 208 189 171 163 159 153 149 145 141 139 140 143 145 145 144 145 143 143 142 141 141 141 142 140 135 130 125 124 123 121 117 112 109 106 102 98 95 94 92 92 91 88 84 79 74 69 65 61 56 51 49 49 48 44 46 49 48 44
185 188 187 192 189 160 130 109 76 50 12 28 46 25 8 17 39 54 49 323 310 353 230 235 238 231 178 166 163 157 175 202 214 222 234 239 228 215 214 197 181 171 165 159 155 151 145 142 141 142 144 145 147 147 148 148 146 144 143 144 145 144 142 137 132 128 126 123 120 116 112 107 103 98 95 94 94 96 96 94 90 85 79 72 65 59 56 53 49 44 43 41 37 36 40 44 43
198 199 199 201 196 191 179 159 146 27 7 21 54 33 11 23 32 37 49 307 297 341 296 262 256 223 164 156 157 160 169 188 213 219 222 224 207 198 199 189 178 172 166 160 157 153 149 147 145 145 145 146 148 149 149 148 146 144 143 144 146 144 141 138 135 132 129 125 121 115 109 103 98 96 93 93 95 97 96 92 88 83 78 73 67 58 52 49 45 42 40 39 39 34 29 30 36
206 209 212 217 215 215 210 191 191 210 4 12 49 33 4 17 26 29 51 52 342 348 349 330 310 164 157 163 166 182 186 186 215 219 206 204 196 190 190 184 177 172 167 162 159 156 153 152 150 148 147 148 149 148 147 146 146 143 141 143 145 144 141 139 137 134 130 125 120 114 107 101 99 99 97 96 97 95 91 89 85 79 76 72 65 58 51 46 40 36 35 35 37 38 29 21 26
211 214 219 228 232 239 243 227 207 187 27 6 34 13 347 8 34 47 57 54 16 350 353 358 343 27 151 170 173 187 204 192 199 211 198 194 190 185 183 179 175 173 169 164 161 159 158 156 154 151 149 151 152 150 148 146 146 144 143 143 145 145 142 140 137 133 130 126 122 116 111 107 104 101 99 98 96 92 88 84 79 72 68 62 57 54 48 44 38 32 30 29 28 33 34 23 20
217 218 221 229 240 255 264 254 232 207 198 318 338 316 339 23 66 67 53 41 22 353 349 358 356 355 126 172 185 183 201 201 191 205 202 194 188 184 181 177 175 174 170 165 163 162 161 160 158 155 152 153 154 154 153 149 146 145 145 146 147 148 147 144 140 136 133 130 125 120 116 112 107 102 97 95 91 88 83 77 70 63 57 53 50 49 48 43 36 30 26 24 21 21 31 30 21
224 222 224 232 248 262 267 263 251 232 218 255 303 315 20 51 56 47 39 36 20 355 340 340 356 355 357 165 197 183 185 201 199 199 198 193 189 187 182 178 176 174 170 166 165 165 163 163 163 160 155 154 155 155 155 153 150 148 148 149 151 152 152 150 146 142 138 134 129 124 119 111 105 102 98 95 90 82 73 66 60 54 49 47 43 41 40 38 32 28 24 19 17 14 22 33 28
226 229 229 235 249 260 267 262 245 236 230 241 312 336 59 52 40 33 34 38 28 12 344 324 341 359 349 68 193 196 189 201 197 187 186 189 189 190 186 179 176 173 172 169 166 167 167 168 166 162 159 156 155 154 156 156 155 154 153 154 156 155 154 154 150 145 144 141 136 129 121 114 111 111 106 96 87 76 66 59 54 47 41 36 32 28 23 20 17 18 17 12 13 12 13 23 30
224 230 232 236 242 254 269 254 219 201 215 195 6 36 69 59 45 34 26 28 25 19 357 323 325 353 354 5 186 208 209 196 181 175 178 186 188 191 190 180 176 175 176 172 168 169 170 169 167 164 163 159 157 157 158 160 160 160 160 161 162 159 157 155 151 147 147 145 143 140 130 123 121 119 111 99 83 68 59 53 47 39 30 22 19 15 8 4 1 360 360 357 4 9 6 11 19
220 227 231 233 236 251 261 231 194 183 193 177 29 59 79 67 41 26 14 14 16 14 3 334 321 341 360 359 347 208 206 184 171 171 174 185 190 193 191 182 179 179 177 173 171 172 171 171 170 169 166 162 161 161 161 162 163 163 165 167 167 165 163 159 156 152 151 147 145 147 138 127 124 119 113 103 83 67 55 43 35 24 14 7 2 358 352 349 347 345 342 342 351 358 359 3 8
220 220 220 225 234 245 233 198 188 197 189 189 313 95 87 59 25 17 8 6 9 9 4 346 324 326 347 357 340 233 205 195 184 181 179 186 193 193 191 187 183 180 179 178 177 176 175 172 168 165 161 160 162 162 163 164 165 167 168 171 170 168 167 165 163 160 155 147 144 143 134 127 124 119 112 101 82 63 43 25 14 4 354 349 345 342 338 336 334 334 334 337 340 344 353 356 359
223 216 204 217 231 228 200 193 201 206 197 220 233 130 78 37 18 11 2 360 7 7 1 351 329 315 327 345 306 245 218 221 212 201 195 191 190 191 192 191 186 181 183 185 183 178 175 171 164 161 157 157 160 160 164 165 167 170 172 174 173 169 166 167 169 165 155 145 141 136 127 123 120 113 105 93 75 44 10 358 349 343 338 335 335 333 331 330 329 331 337 342 339 341 351 345 345
221 214 205 215 226 210 193 204 212 213 211 220 228 231 281 339 11 5 358 358 5 0 353 349 331 313 314 323 300 256 236 235 223 209 206 197 190 190 190 191 190 186 187 188 186 179 174 170 166 164 162 162 161 160 163 166 168 171 175 177 177 173 167 167 169 164 154 144 140 136 128 123 117 106 90 67 38 4 346 341 335 329 329 331 333 332 332 332 330 334 342 345 341 339 341 332 328
217 214 207 211 219 202 192 206 213 220 220 216 231 245 244 251 332 345 342 344 353 351 347 344 331 312 306 309 305 264 248 230 202 196 204 198 193 193 190 189 190 191 191 190 188 184 178 174 172 170 169 171 170 168 168 170 171 174 178 179 181 182 175 167 164 162 155 147 145 142 139 133 121 102 63 12 344 338 335 332 325 323 328 334 337 336 336 336 334 339 343 343 342 337 334 328 322
221 220 208 206 208 193 194 204 210 222 225 216 230 242 240 242 278 303 307 318 337 341 341 339 329 309 298 299 301 270 259 232 186 194 204 199 194 195 193 188 188 193 194 193 193 191 185 180 179 176 175 180 181 181 181 178 178 180 183 184 184 187 187 174 162 161 159 153 153 151 148 144 132 118 354 331 327 330 331 327 324 328 337 341 343 343 343 345 346 348 347 346 343 340 337 332 327
221 222 214 208 198 188 198 203 205 219 226 220 228 241 243 248 260 268 274 295 316 322 328 333 331 310 291 292 293 275 262 241 207 202 201 199 195 193 194 189 187 192 196 196 195 192 188 185 184 184 185 188 190 191 193 191 188 187 189 188 186 188 194 188 167 164 168 165 164 163 159 161 159 210 314 323 328 331 329 327 330 337 342 345 348 351 355 359 1 1 358 353 349 346 344 339 335
219 220 219 211 195 193 199 200 203 215 222 218 226 238 238 237 242 244 251 277 292 300 311 326 336 312 287 288 287 280 255 242 227 216 201 198 199 194 193 193 192 194 195 197 197 192 190 189 188 191 195 195 195 198 198 198 199 196 196 193 189 190 195 197 180 171 176 178 177 177 178 186 224 297 317 324 328 327 322 323 330 336 340 346 351 356 3 7 10 10 8 3 359 357 353 347 343
219 220 220 206 194 196 196 200 208 215 220 219 226 236 235 231 228 223 235 260 270 280 290 306 325 279 277 289 287 277 250 238 234 232 220 202 201 203 201 200 200 198 196 197 199 198 198 196 193 196 201 202 201 203 202 203 206 204 201 197 196 196 197 200 195 183 184 187 186 189 200 219 260 295 311 318 319 315 312 317 323 330 337 343 351 358 3 8 11 11 10 7 4 360 355 349 345
223 224 218 195 193 196 194 202 213 217 221 225 232 239 240 239 228 214 225 241 253 268 272 274 265 233 260 292 286 275 255 242 237 234 231 213 204 211 213 211 207 202 201 202 201 203 205 204 202 200 203 208 211 211 208 209 213 211 208 205 203 202 201 202 203 199 196 197 200 203 216 238 264 285 299 307 309 305 304 310 315 322 331 337 346 354 358 2 4 2 359 358 355 350 345 341 337
225 226 214 191 190 195 194 201 213 218 220 226 237 243 243 245 239 224 224 230 244 256 250 233 223 235 257 263 274 272 260 247 239 230 228 219 207 210 217 216 209 203 205 207 207 209 212 212 211 207 203 205 212 216 214 214 218 218 216 213 210 209 208 207 209 212 209 207 214 221 230 245 262 277 291 300 302 299 299 305 310 316 326 333 340 344 347 351 351 349 346 344 342 339 336 332 330
217 213 212 196 190 194 195 201 211 217 219 224 234 241 240 243 244 235 227 231 237 235 215 193 203 242 253 238 254 266 263 253 238 226 223 216 203 200 207 212 211 208 207 208 211 215 219 220 219 218 215 208 208 212 215 217 218 220 222 221 219 217 216 214 216 220 219 217 223 232 241 251 262 275 285 293 295 293 296 301 306 313 322 330 335 337 339 342 341 338 335 333 334 334 331 328 326
186 198 213 201 192 193 194 202 210 214 219 225 229 236 239 242 245 239 229 228 224 209 181 170 196 233 241 224 229 252 261 257 239 224 221 218 207 198 198 205 212 214 212 212 216 218 221 225 227 230 231 226 216 209 211 217 219 218 221 225 226 226 223 222 223 226 225 224 229 237 246 255 264 273 280 286 288 287 291 296 301 308 317 324 330 332 333 334 333 330 327 328 329 328 326 325 324
178 201 212 203 198 194 192 201 208 212 223 228 227 232 240 244 244 240 232 223 210 189 174 177 197 222 221 211 217 235 254 256 245 231 224 221 219 211 202 201 207 213 214 214 216 218 222 227 232 234 232 232 230 219 212 216 222 219 218 225 231 231 227 227 228 229 229 230 233 240 249 257 265 272 278 281 282 282 284 289 295 304 312 319 324 326 328 328 327 325 325 326 324 321 322 326 326
194 208 208 202 202 197 197 203 207 215 228 234 227 227 240 247 244 242 242 228 205 198 194 192 200 215 209 205 217 233 249 254 252 242 229 223 226 226 218 209 207 210 213 216 216 216 219 221 225 230 232 234 235 233 225 222 227 229 227 230 234 234 230 229 231 231 231 232 235 241 249 257 265 271 276 278 275 275 279 285 293 301 307 314 318 320 324 325 325 325 324 322 319 317 320 325 327
206 212 210 206 204 201 205 208 211 222 236 240 228 222 236 249 247 241 250 246 224 221 212 201 206 215 207 202 219 234 243 248 252 248 237 230 231 233 229 224 220 218 216 219 221 219 218 217 218 223 231 237 238 237 236 231 229 233 239 242 241 241 237 232 233 235 235 236 238 243 250 258 265 271 275 274 271 271 275 283 290 296 302 308 311 314 319 322 323 322 320 320 317 315 317 321 326
219 217 214 213 209 208 212 213 217 230 244 243 229 221 233 251 257 244 247 249 240 236 222 211 215 220 212 205 220 235 235 237 246 251 248 241 238 237 233 231 232 231 228 227 227 227 226 225 225 226 229 235 238 238 239 237 234 232 237 244 245 247 246 241 239 237 239 241 241 243 250 258 264 271 275 274 269 267 270 279 285 289 295 300 302 307 314 318 319 317 318 318 315 313 315 319 324
238 234 227 223 220 220 222 220 223 237 251 247 232 224 234 253 263 251 248 249 250 248 231 219 218 220 217 214 223 232 229 228 233 243 251 250 246 243 240 240 239 239 240 240 238 236 236 236 237 238 238 239 241 242 243 243 241 238 236 241 245 246 248 248 246 241 241 244 244 245 251 258 263 270 276 275 268 262 266 273 277 281 288 293 296 303 310 314 315 316 318 317 315 315 317 320 324
245 245 240 234 230 232 234 231 233 243 248 244 235 229 240 256 267 263 256 250 250 250 239 229 226 222 219 219 225 231 230 230 232 236 243 249 250 247 245 247 247 244 244 247 248 246 246 246 247 247 246 245 245 245 246 246 245 243 239 239 242 242 243 247 249 247 246 246 246 247 252 258 263 269 275 274 261 256 261 265 268 272 280 287 293 301 309 313 315 318 320 319 319 320 321 323 326
238 238 238 237 235 239 241 237 236 239 241 242 239 238 247 259 266 263 256 250 251 250 245 239 234 231 229 225 229 237 238 240 242 240 238 241 247 249 247 248 252 250 248 251 255 254 253 253 254 253 251 248 248 248 249 249 248 247 245 242 243 243 242 243 247 249 249 248 249 251 254 258 263 268 273 268 256 253 256 256 260 266 274 283 291 301 308 313 315 317 319 319 320 322 323 325 326
235 235 236 241 241 239 241 238 235 235 239 243 245 246 250 255 258 258 252 250 251 251 250 246 240 240 240 234 233 240 243 247 249 245 239 236 242 248 248 247 252 254 252 255 258 257 255 254 256 257 255 253 254 255 255 254 252 251 250 247 246 246 245 243 243 244 246 250 253 254 256 260 262 264 268 263 253 250 250 249 254 263 272 281 290 301 307 310 312 314 317 319 321 324 325 326 327
229 234 237 240 235 231 234 236 233 232 238 244 245 248 251 252 254 255 252 250 250 250 253 251 246 245 245 240 238 239 240 244 248 245 240 235 237 243 245 246 250 253 253 253 253 254 253 255 259 261 262 262 262 262 262 260 258 255 253 250 248 247 245 242 241 242 245 250 253 255 258 259 258 260 263 259 250 246 244 244 250 260 270 277 286 296 301 304 307 312 318 321 324 326 328 329 329
226 229 229 231 232 231 232 236 235 232 238 245 245 245 250 252 255 257 254 252 250 250 252 255 253 250 251 248 240 233 228 230 239 244 242 237 236 240 244 247 248 248 250 248 247 251 254 257 261 262 263 265 267 270 270 267 263 258 255 251 249 248 246 243 241 241 243 247 251 254 257 257 256 258 260 254 246 242 238 239 246 257 265 273 283 290 294 300 306 314 321 323 325 329 331 332 331
226 224 223 225 231 235 236 240 244 241 241 246 247 248 250 253 259 262 258 255 252 250 251 255 256 253 254 252 237 224 220 220 228 246 245 238 237 241 242 243 243 243 245 245 245 251 256 259 259 257 260 265 270 275 275 272 268 261 255 251 248 249 248 246 244 242 242 244 248 252 255 257 256 255 256 251 242 238 235 235 241 250 257 267 278 284 289 297 307 317 322 323 326 328 330 332 333
230 228 227 228 231 233 234 237 241 242 243 246 247 250 251 249 256 262 262 259 254 251 252 254 255 255 254 248 236 226 223 221 224 253 258 241 235 238 237 235 238 237 236 238 242 247 251 253 254 255 259 265 272 277 278 277 272 265 259 253 248 246 246 246 245 243 242 243 246 250 253 256 255 253 253 246 238 235 233 232 236 243 251 261 270 277 285 295 307 318 322 322 323 324 326 328 330
233 234 234 234 235 236 236 237 239 242 247 249 252 257 258 246 245 252 256 258 255 253 252 249 248 249 247 241 235 230 226 226 232 253 269 252 237 235 236 233 234 235 235 237 241 244 246 247 250 253 258 265 273 280 280 278 275 269 263 256 251 246 245 245 244 243 241 242 245 248 250 254 253 252 249 239 232 232 231 230 231 238 248 256 264 273 281 291 306 318 321 320 319 320 322 325 326